| time (UTC) | temp F | wind direction | speed MPH | gust MPH | rain 1hr in | rain 24hr in | rain mn in | humidity % | barometer mb |
| 20260503203512 | 52 | 82 | 1.0 | 4.0 | 0.00 | 0.00 | 0.00 | 44 | 1019.5 |
| 20260503203035 | 52 | 115 | 1.0 | 4.0 | 0.00 | 0.00 | 0.00 | 44 | 1019.5 |
| 20260503202511 | 52 | 117 | 1.0 | 4.0 | 0.00 | 0.00 | 0.00 | 45 | 1019.3 |
| 20260503202015 | 52 | 145 | 1.0 | 4.0 | 0.00 | 0.00 | 0.00 | 46 | 1019.4 |
| 20260503201528 | 52 | 85 | 1.0 | 6.0 | 0.00 | 0.00 | 0.00 | 45 | 1019.4 |
| 20260503201006 | 52 | 20 | 1.0 | 6.0 | 0.00 | 0.00 | 0.00 | 44 | 1019.5 |
| 20260503200510 | 52 | 111 | 1.0 | 6.0 | 0.00 | 0.00 | 0.00 | 48 | 1019.5 |
| 20260503200029 | 52 | 128 | 2.0 | 6.0 | 0.00 | 0.00 | 0.00 | 45 | 1019.4 |
| 20260503195513 | 52 | 119 | 3.0 | 5.0 | 0.00 | 0.00 | 0.00 | 46 | 1019.5 |
| 20260503195008 | 52 | 15 | 1.0 | 3.0 | 0.00 | 0.00 | 0.00 | 46 | 1019.4 |
| 20260503194529 | 52 | 61 | 1.0 | 4.0 | 0.00 | 0.00 | 0.00 | 46 | 1019.2 |
| 20260503194011 | 51 | 59 | 2.0 | 4.0 | 0.00 | 0.00 | 0.00 | 45 | 1019.3 |
| 20260503193509 | 51 | 148 | 1.0 | 3.0 | 0.00 | 0.00 | 0.00 | 45 | 1019.3 |
| 20260503193041 | 51 | 350 | 1.0 | 3.0 | 0.00 | 0.00 | 0.00 | 46 | 1019.5 |
| 20260503192508 | 51 | 161 | 1.0 | 3.0 | 0.00 | 0.00 | 0.00 | 46 | 1019.5 |
| 20260503192009 | 51 | 71 | 0.0 | 4.0 | 0.00 | 0.00 | 0.00 | 46 | 1019.5 |
| 20260503191559 | 51 | 37 | 2.0 | 4.0 | 0.00 | 0.00 | 0.00 | 46 | 1019.4 |
| 20260503191010 | 51 | 107 | 1.0 | 3.0 | 0.00 | 0.00 | 0.00 | 45 | 1019.4 |
| 20260503190508 | 51 | 171 | 1.0 | 5.0 | 0.00 | 0.00 | 0.00 | 45 | 1019.4 |
| 20260503190034 | 51 | 80 | 0.0 | 5.0 | 0.00 | 0.00 | 0.00 | 47 | 1019.5 |
| 20260503185510 | 51 | 107 | 1.0 | 3.0 | 0.00 | 0.00 | 0.00 | 47 | 1019.5 |
| 20260503185009 | 50 | 102 | 1.0 | 3.0 | 0.00 | 0.00 | 0.00 | 48 | 1019.4 |
| 20260503184528 | 50 | 157 | 1.0 | 4.0 | 0.00 | 0.00 | 0.00 | 49 | 1019.5 |
| 20260503184010 | 50 | 58 | 1.0 | 4.0 | 0.00 | 0.00 | 0.00 | 47 | 1019.7 |
| 20260503183515 | 50 | 127 | 1.0 | 4.0 | 0.00 | 0.00 | 0.00 | 48 | 1019.5 |
| 20260503183028 | 50 | 105 | 1.0 | 5.0 | 0.00 | 0.00 | 0.00 | 49 | 1019.5 |
| 20260503182509 | 50 | 132 | 2.0 | 5.0 | 0.00 | 0.00 | 0.00 | 49 | 1019.5 |
| 20260503182010 | 50 | 121 | 0.0 | 4.0 | 0.00 | 0.00 | 0.00 | 51 | 1019.5 |
| 20260503181539 | 50 | 106 | 1.0 | 4.0 | 0.00 | 0.00 | 0.00 | 50 | 1019.4 |
| 20260503181011 | 49 | 65 | 1.0 | 4.0 | 0.00 | 0.00 | 0.00 | 51 | 1019.5 |
| 20260503180507 | 49 | 116 | 1.0 | 4.0 | 0.00 | 0.00 | 0.00 | 52 | 1019.7 |
| 20260503180033 | 48 | 24 | 2.0 | 4.0 | 0.00 | 0.00 | 0.00 | 53 | 1019.5 |
| 20260503175509 | 48 | 105 | 1.0 | 4.0 | 0.00 | 0.00 | 0.00 | 55 | 1019.5 |
| 20260503175026 | 48 | 71 | 1.0 | 3.0 | 0.00 | 0.00 | 0.00 | 55 | 1019.7 |
| 20260503174534 | 47 | 119 | 0.0 | 3.0 | 0.00 | 0.00 | 0.00 | 56 | 1019.7 |
| 20260503174012 | 47 | 94 | 0.0 | 3.0 | 0.00 | 0.00 | 0.00 | 57 | 1019.6 |
| 20260503173509 | 47 | 130 | 1.0 | 4.0 | 0.00 | 0.00 | 0.00 | 56 | 1019.7 |
| 20260503173030 | 46 | 52 | 0.0 | 4.0 | 0.00 | 0.00 | 0.00 | 57 | 1019.9 |
| 20260503172510 | 46 | 214 | 0.0 | 3.0 | 0.00 | 0.00 | 0.00 | 58 | 1019.9 |
| 20260503172015 | 46 | 120 | 1.0 | 5.0 | 0.00 | 0.00 | 0.00 | 57 | 1019.9 |
| 20260503171531 | 46 | 78 | 1.0 | 5.0 | 0.00 | 0.00 | 0.00 | 57 | 1019.8 |
| 20260503171009 | 45 | 65 | 0.0 | 3.0 | 0.00 | 0.00 | 0.00 | 58 | 1019.7 |
| 20260503170511 | 45 | 113 | 0.0 | 2.0 | 0.00 | 0.00 | 0.00 | 59 | 1019.8 |
| 20260503151014 | 42 | 44 | 0.0 | 2.0 | 0.00 | 0.02 | 0.00 | 67 | 1020.1 |
| 20260503150511 | 42 | 0 | 0.0 | 2.0 | 0.00 | 0.02 | 0.00 | 67 | 1020.0 |
| 20260503131011 | 40 | 0 | 0.0 | 1.0 | 0.00 | 0.02 | 0.00 | 72 | 1020.3 |
| 20260503130507 | 40 | 0 | 0.0 | 1.0 | 0.00 | 0.02 | 0.00 | 71 | 1020.1 |
| 20260503110508 | 38 | 0 | 0.0 | 0.0 | 0.00 | 0.02 | 0.00 | 77 | 1020.5 |
| 20260503090508 | 38 | 0 | 0.0 | 0.0 | 0.00 | 0.03 | 0.00 | 83 | 1020.3 |
| 20260503081539 | 38 | 0 | 0.0 | 0.0 | 0.00 | 0.03 | 0.00 | 81 | 1020.1 |
| 20260503081026 | 39 | 0 | 0.0 | 0.0 | 0.00 | 0.03 | 0.00 | 81 | 1020.1 |
| 20260503080510 | 39 | 0 | 0.0 | 0.0 | 0.00 | 0.03 | 0.00 | 80 | 1020.1 |
| 20260503072514 | 41 | 0 | 0.0 | 0.0 | 0.00 | 0.03 | 0.03 | 77 | 1019.8 |
| 20260503072014 | 41 | 0 | 0.0 | 0.0 | 0.00 | 0.03 | 0.03 | 78 | 1019.8 |
| 20260503071530 | 41 | 0 | 0.0 | 0.0 | 0.00 | 0.03 | 0.03 | 76 | 1019.8 |
| 20260503071011 | 41 | 0 | 0.0 | 0.0 | 0.00 | 0.03 | 0.03 | 76 | 1019.9 |
| 20260503070514 | 42 | 0 | 0.0 | 0.0 | 0.00 | 0.03 | 0.03 | 76 | 1019.7 |
| 20260503055009 | 45 | 0 | 0.0 | 0.0 | 0.00 | 0.05 | 0.03 | 70 | 1019.0 |
| 20260503054543 | 45 | 0 | 0.0 | 0.0 | 0.00 | 0.05 | 0.03 | 70 | 1018.9 |
| 20260503054011 | 45 | 0 | 0.0 | 0.0 | 0.00 | 0.05 | 0.03 | 71 | 1019.0 |
| 20260503053511 | 46 | 0 | 0.0 | 0.0 | 0.00 | 0.05 | 0.03 | 70 | 1018.9 |
| 20260503053031 | 46 | 0 | 0.0 | 0.0 | 0.00 | 0.05 | 0.03 | 71 | 1018.8 |
| 20260503052508 | 46 | 0 | 0.0 | 0.0 | 0.00 | 0.05 | 0.03 | 69 | 1018.8 |
| 20260503052010 | 46 | 0 | 0.0 | 0.0 | 0.00 | 0.05 | 0.03 | 68 | 1018.8 |
| 20260503051529 | 46 | 0 | 0.0 | 0.0 | 0.00 | 0.05 | 0.03 | 67 | 1018.7 |
| 20260503051009 | 46 | 0 | 0.0 | 0.0 | 0.00 | 0.05 | 0.03 | 67 | 1018.7 |
| 20260503050515 | 47 | 0 | 0.0 | 0.0 | 0.00 | 0.05 | 0.03 | 68 | 1018.6 |
| 20260503050028 | 47 | 0 | 0.0 | 0.0 | 0.00 | 0.05 | 0.03 | 68 | 1018.7 |
| 20260503045508 | 47 | 0 | 0.0 | 0.0 | 0.00 | 0.06 | 0.03 | 66 | 1018.6 |
| 20260503045007 | 47 | 0 | 0.0 | 0.0 | 0.00 | 0.06 | 0.03 | 66 | 1018.4 |
| 20260503044537 | 47 | 0 | 0.0 | 0.0 | 0.00 | 0.06 | 0.03 | 66 | 1018.4 |
| 20260503044010 | 47 | 0 | 0.0 | 0.0 | 0.00 | 0.06 | 0.03 | 66 | 1018.4 |
| 20260503043508 | 47 | 0 | 0.0 | 0.0 | 0.00 | 0.06 | 0.03 | 65 | 1018.3 |
| 20260503043033 | 47 | 0 | 0.0 | 0.0 | 0.00 | 0.06 | 0.03 | 66 | 1018.4 |
| 20260503042511 | 47 | 0 | 0.0 | 0.0 | 0.00 | 0.06 | 0.03 | 66 | 1018.3 |
| 20260503042012 | 48 | 0 | 0.0 | 0.0 | 0.00 | 0.06 | 0.03 | 66 | 1018.3 |
| 20260503041528 | 48 | 0 | 0.0 | 0.0 | 0.00 | 0.06 | 0.03 | 65 | 1018.2 |
| 20260503041008 | 48 | 0 | 0.0 | 0.0 | 0.00 | 0.06 | 0.03 | 64 | 1018.3 |
| 20260503040512 | 48 | 0 | 0.0 | 1.0 | 0.00 | 0.06 | 0.03 | 63 | 1018.3 |
| 20260503040035 | 48 | 0 | 0.0 | 1.0 | 0.00 | 0.06 | 0.03 | 63 | 1018.2 |
| 20260503035511 | 48 | 265 | 0.0 | 1.0 | 0.00 | 0.06 | 0.03 | 63 | 1018.0 |
| 20260503035010 | 48 | 0 | 0.0 | 1.0 | 0.00 | 0.06 | 0.03 | 63 | 1017.8 |
| 20260503034528 | 48 | 266 | 1.0 | 1.0 | 0.00 | 0.06 | 0.03 | 63 | 1018.0 |
| 20260503034011 | 48 | 340 | 0.0 | 1.0 | 0.00 | 0.06 | 0.03 | 63 | 1018.0 |
| 20260503033510 | 48 | 0 | 0.0 | 1.0 | 0.00 | 0.06 | 0.03 | 62 | 1018.2 |
| 20260503033030 | 48 | 0 | 0.0 | 1.0 | 0.00 | 0.06 | 0.03 | 63 | 1018.1 |
| 20260503032509 | 49 | 0 | 0.0 | 1.0 | 0.00 | 0.06 | 0.03 | 64 | 1018.1 |
| 20260503032012 | 49 | 0 | 0.0 | 0.0 | 0.00 | 0.06 | 0.03 | 63 | 1018.1 |
| 20260503031530 | 49 | 314 | 0.0 | 1.0 | 0.00 | 0.06 | 0.03 | 64 | 1018.0 |
| 20260503031009 | 49 | 0 | 0.0 | 1.0 | 0.00 | 0.06 | 0.03 | 63 | 1018.1 |
| 20260503030509 | 49 | 314 | 0.0 | 1.0 | 0.00 | 0.06 | 0.03 | 62 | 1018.2 |
| 20260503030035 | 49 | 250 | 0.0 | 2.0 | 0.00 | 0.06 | 0.03 | 61 | 1018.1 |
| 20260503025510 | 49 | 0 | 0.0 | 3.0 | 0.00 | 0.06 | 0.03 | 60 | 1018.0 |
| 20260503025010 | 50 | 284 | 0.0 | 3.0 | 0.00 | 0.06 | 0.03 | 60 | 1017.9 |
| 20260503024533 | 50 | 279 | 1.0 | 3.0 | 0.00 | 0.06 | 0.03 | 60 | 1017.8 |
| 20260503024009 | 50 | 0 | 0.0 | 2.0 | 0.00 | 0.06 | 0.03 | 63 | 1017.8 |
| 20260503023510 | 50 | 281 | 0.0 | 4.0 | 0.00 | 0.06 | 0.03 | 63 | 1018.1 |
| 20260503023029 | 50 | 279 | 1.0 | 4.0 | 0.00 | 0.06 | 0.03 | 61 | 1018.1 |
| 20260503022507 | 50 | 291 | 1.0 | 4.0 | 0.00 | 0.06 | 0.03 | 59 | 1018.0 |
| 20260503022009 | 50 | 323 | 0.0 | 3.0 | 0.00 | 0.06 | 0.03 | 62 | 1017.9 |
| 20260503021528 | 50 | 262 | 1.0 | 3.0 | 0.00 | 0.06 | 0.03 | 60 | 1018.0 |
| 20260503021010 | 50 | 288 | 1.0 | 4.0 | 0.00 | 0.06 | 0.03 | 61 | 1017.8 |
| 20260503020510 | 50 | 282 | 2.0 | 5.0 | 0.00 | 0.06 | 0.03 | 61 | 1017.8 |
| 20260503020028 | 50 | 281 | 2.0 | 5.0 | 0.00 | 0.06 | 0.03 | 61 | 1017.7 |
| 20260503015514 | 51 | 218 | 2.0 | 5.0 | 0.00 | 0.06 | 0.03 | 60 | 1017.7 |
| 20260503015009 | 51 | 304 | 1.0 | 5.0 | 0.00 | 0.06 | 0.03 | 60 | 1017.6 |
| 20260503014528 | 50 | 134 | 0.0 | 5.0 | 0.00 | 0.06 | 0.03 | 61 | 1017.7 |
| 20260503014011 | 50 | 241 | 1.0 | 5.0 | 0.00 | 0.06 | 0.03 | 59 | 1017.5 |
| 20260503013511 | 51 | 285 | 1.0 | 5.0 | 0.00 | 0.06 | 0.03 | 58 | 1017.6 |
| 20260503013037 | 51 | 211 | 1.0 | 3.0 | 0.00 | 0.06 | 0.03 | 59 | 1017.7 |
| 20260503012509 | 51 | 246 | 1.0 | 4.0 | 0.00 | 0.06 | 0.03 | 57 | 1017.8 |
| 20260503012010 | 51 | 63 | 1.0 | 5.0 | 0.00 | 0.06 | 0.03 | 57 | 1017.5 |
| 20260503011529 | 51 | 150 | 1.0 | 6.0 | 0.00 | 0.06 | 0.03 | 56 | 1017.6 |
| 20260503011010 | 51 | 140 | 3.0 | 8.0 | 0.00 | 0.06 | 0.03 | 55 | 1017.6 |
| 20260503010514 | 51 | 147 | 2.0 | 8.0 | 0.00 | 0.06 | 0.03 | 54 | 1017.6 |
| 20260503010027 | 52 | 292 | 2.0 | 7.0 | 0.00 | 0.06 | 0.03 | 55 | 1017.6 |
| 20260503005511 | 52 | 242 | 1.0 | 7.0 | 0.00 | 0.06 | 0.03 | 53 | 1017.5 |
| 20260503005009 | 52 | 254 | 2.0 | 7.0 | 0.00 | 0.06 | 0.03 | 54 | 1017.4 |
| 20260503004557 | 52 | 255 | 2.0 | 7.0 | 0.00 | 0.06 | 0.03 | 56 | 1017.5 |
| 20260503004012 | 51 | 285 | 3.0 | 9.0 | 0.00 | 0.06 | 0.03 | 56 | 1017.4 |
| 20260503003509 | 51 | 153 | 3.0 | 9.0 | 0.00 | 0.06 | 0.03 | 56 | 1017.4 |
| 20260503003042 | 51 | 175 | 2.0 | 7.0 | 0.00 | 0.06 | 0.03 | 56 | 1017.5 |
| 20260503002510 | 51 | 235 | 3.0 | 9.0 | 0.00 | 0.06 | 0.03 | 57 | 1017.4 |
| 20260503002009 | 51 | 293 | 2.0 | 9.0 | 0.00 | 0.06 | 0.03 | 55 | 1017.5 |
| 20260503001540 | 51 | 302 | 3.0 | 9.0 | 0.00 | 0.06 | 0.03 | 55 | 1017.5 |
| 20260503001008 | 51 | 226 | 2.0 | 8.0 | 0.00 | 0.06 | 0.03 | 56 | 1017.4 |
| 20260503000509 | 51 | 271 | 3.0 | 8.0 | 0.00 | 0.06 | 0.03 | 55 | 1017.5 |
| 20260503000028 | 51 | 254 | 3.0 | 8.0 | 0.00 | 0.06 | 0.03 | 59 | 1017.4 |
| 20260502235510 | 50 | 227 | 3.0 | 7.0 | 0.00 | 0.06 | 0.03 | 60 | 1017.5 |
| 20260502235010 | 50 | 265 | 2.0 | 7.0 | 0.00 | 0.06 | 0.03 | 59 | 1017.3 |
| 20260502234538 | 49 | 292 | 3.0 | 7.0 | 0.00 | 0.06 | 0.03 | 58 | 1017.3 |
| 20260502234009 | 50 | 284 | 2.0 | 7.0 | 0.00 | 0.06 | 0.03 | 57 | 1017.3 |
| 20260502233507 | 49 | 153 | 2.0 | 8.0 | 0.00 | 0.06 | 0.03 | 55 | 1017.1 |
| 20260502233038 | 49 | 259 | 3.0 | 8.0 | 0.00 | 0.06 | 0.03 | 55 | 1017.1 |
| 20260502232511 | 49 | 250 | 3.0 | 7.0 | 0.00 | 0.06 | 0.03 | 55 | 1017.0 |
| 20260502232010 | 49 | 273 | 2.0 | 6.0 | 0.00 | 0.06 | 0.03 | 54 | 1017.0 |
| 20260502231528 | 49 | 139 | 1.0 | 6.0 | 0.00 | 0.06 | 0.03 | 55 | 1017.0 |
| 20260502231010 | 49 | 153 | 2.0 | 4.0 | 0.00 | 0.06 | 0.03 | 55 | 1016.9 |
| 20260502230511 | 49 | 285 | 2.0 | 4.0 | 0.00 | 0.06 | 0.03 | 55 | 1016.8 |
| 20260502230034 | 50 | 248 | 1.0 | 3.0 | 0.00 | 0.06 | 0.03 | 54 | 1016.9 |
| 20260502225510 | 50 | 277 | 1.0 | 4.0 | 0.00 | 0.06 | 0.03 | 54 | 1016.7 |
| 20260502225008 | 50 | 51 | 0.0 | 4.0 | 0.00 | 0.06 | 0.03 | 56 | 1016.8 |
| 20260502224528 | 50 | 126 | 1.0 | 5.0 | 0.00 | 0.06 | 0.03 | 54 | 1016.9 |
| 20260502224013 | 49 | 207 | 1.0 | 6.0 | 0.00 | 0.06 | 0.03 | 55 | 1016.8 |
| 20260502223512 | 49 | 215 | 1.0 | 6.0 | 0.00 | 0.06 | 0.03 | 55 | 1017.1 |
| 20260502223038 | 49 | 63 | 0.0 | 3.0 | 0.00 | 0.06 | 0.03 | 60 | 1017.0 |
| 20260502222511 | 49 | 124 | 0.0 | 3.0 | 0.00 | 0.06 | 0.03 | 58 | 1016.9 |
| 20260502222010 | 49 | 86 | 1.0 | 6.0 | 0.00 | 0.06 | 0.03 | 59 | 1016.8 |
| 20260502221529 | 49 | 273 | 0.0 | 6.0 | 0.00 | 0.06 | 0.03 | 59 | 1016.7 |
| 20260502221008 | 49 | 182 | 2.0 | 6.0 | 0.00 | 0.06 | 0.03 | 59 | 1016.8 |
| 20260502220511 | 49 | 143 | 0.0 | 3.0 | 0.00 | 0.06 | 0.03 | 58 | 1016.7 |
| 20260502220028 | 49 | 10 | 0.0 | 3.0 | 0.00 | 0.06 | 0.03 | 59 | 1016.6 |
| 20260502215513 | 48 | 15 | 1.0 | 4.0 | 0.00 | 0.06 | 0.03 | 61 | 1016.4 |
| 20260502215010 | 48 | 122 | 1.0 | 4.0 | 0.00 | 0.06 | 0.03 | 64 | 1016.5 |
| 20260502214532 | 48 | 85 | 1.0 | 4.0 | 0.00 | 0.06 | 0.03 | 61 | 1016.4 |
| 20260502214015 | 48 | 85 | 1.0 | 3.0 | 0.00 | 0.06 | 0.03 | 64 | 1016.4 |
| 20260502213510 | 47 | 277 | 1.0 | 3.0 | 0.00 | 0.06 | 0.03 | 62 | 1016.4 |
| 20260502213028 | 47 | 80 | 0.0 | 3.0 | 0.00 | 0.06 | 0.03 | 67 | 1016.3 |
| 20260502212510 | 46 | 57 | 2.0 | 3.0 | 0.00 | 0.06 | 0.03 | 66 | 1016.1 |
| 20260502212009 | 46 | 132 | 0.0 | 2.0 | 0.00 | 0.06 | 0.03 | 69 | 1016.2 |
| 20260502211532 | 45 | 0 | 1.0 | 2.0 | 0.00 | 0.06 | 0.03 | 67 | 1016.2 |
| 20260502211008 | 45 | 59 | 0.0 | 1.0 | 0.00 | 0.06 | 0.03 | 71 | 1016.3 |
| 20260502210510 | 45 | 60 | 0.0 | 3.0 | 0.00 | 0.06 | 0.03 | 70 | 1016.2 |
| 20260502210035 | 45 | 0 | 0.0 | 3.0 | 0.00 | 0.06 | 0.03 | 70 | 1016.3 |
| 20260502205508 | 45 | 0 | 1.0 | 2.0 | 0.00 | 0.06 | 0.03 | 69 | 1016.2 |
| 20260502205007 | 45 | 350 | 1.0 | 2.0 | 0.00 | 0.06 | 0.03 | 70 | 1016.2 |
| 20260502204529 | 45 | 40 | 0.0 | 2.0 | 0.00 | 0.06 | 0.03 | 70 | 1016.1 |
| 20260502204010 | 45 | 333 | 0.0 | 2.0 | 0.00 | 0.06 | 0.03 | 72 | 1016.1 |